Lid_Strength_Index
1 1 1 1 1 0 1 1 0 0 0 0 0 0 0 1 1 2 3 3 3 3 2 3 3 3 3 3 3 3 4 4 6 4 3 2 1 1 1 1 0 1 1
1 1 1 1 1 1 1 1 0 0 0 0 0 0 1 1 2 3 4 4 4 4 4 4 4 3 3 3 4 3 3 3 4 4 3 2 2 1 1 1 1 -0 0
1 1 1 1 1 1 1 1 0 0 0 0 1 2 3 3 4 5 4 4 4 4 4 4 4 3 4 3 4 3 2 2 3 3 4 2 2 2 2 1 0 -0 -1
1 1 2 1 1 1 1 1 0 0 0 2 3 3 4 5 4 5 4 4 4 4 4 4 4 4 4 4 4 3 3 3 3 4 4 3 2 1 1 2 2 0 1
2 2 2 1 1 1 1 1 1 0 2 3 4 5 5 5 5 5 4 4 4 4 4 4 3 4 4 3 3 3 3 3 4 4 4 3 2 2 2 1 2 1 1
2 2 2 2 2 2 2 1 2 3 3 4 5 6 5 5 9 7 5 5 4 4 5 3 3 2 2 2 2 1 1 3 3 3 3 3 2 2 2 2 2 3 4
2 2 2 2 3 3 3 3 4 3 4 5 5 5 8 9 9 9 7 5 5 4 3 3 4 4 3 4 3 1 0 0 -0 1 2 2 2 1 1 2 2 2 3
2 2 2 2 3 4 4 4 5 5 5 5 5 6 8 9 9 9 8 6 5 3 3 3 2 2 5 4 4 1 1 -0 0 1 0 1 0 0 0 1 1 1 1
2 2 2 2 3 4 5 6 5 6 5 5 5 5 8 9 10 10 8 7 4 3 4 3 2 3 5 5 3 1 2 1 0 -0 0 1 2 2 2 2 2 2 3
2 2 2 3 3 5 5 5 6 5 5 6 5 5 6 8 10 9 9 7 4 4 2 3 4 4 6 6 3 2 3 2 2 2 1 -0 -0 -0 -0 0 1 3 3
1 2 2 3 4 5 6 6 6 6 6 5 6 6 7 8 8 9 8 7 5 4 1 3 4 5 6 5 5 2 2 3 2 2 1 1 0 0 0 -0 0 1 2
2 2 3 3 5 6 7 7 6 6 7 7 7 7 7 7 8 10 9 9 7 1 2 2 4 6 5 3 4 3 3 3 1 1 1 1 1 1 0 0 -0 -0 -0
2 3 5 6 7 7 7 7 7 7 8 8 8 7 7 6 7 9 9 8 6 2 2 5 5 5 5 4 4 3 3 1 1 2 2 2 1 0 -0 0 -0 -1 -1
6 7 7 7 8 7 7 7 7 7 8 7 8 9 7 6 7 7 7 5 5 4 4 3 3 2 2 2 2 2 1 0 1 1 1 1 0 1 1 0 1 1 1
7 8 8 8 8 8 7 6 6 6 7 7 8 7 6 7 7 7 6 4 3 4 3 0 2 1 1 1 1 0 0 0 1 1 1 1 1 1 1 0 1 1 2
9 8 8 8 8 7 7 7 10 8 9 9 9 6 5 7 9 9 8 8 7 7 3 2 2 1 1 1 1 1 1 1 1 1 1 1 1 1 1 1 1 2 2
8 8 8 8 7 8 8 9 9 9 11 9 8 7 8 10 10 9 8 7 6 6 3 2 2 1 1 1 1 1 1 1 0 1 1 1 1 1 2 2 2 2 2
7 8 7 7 7 8 8 8 8 8 9 8 10 8 10 10 10 9 8 6 5 5 4 2 1 1 1 1 1 1 1 1 1 1 1 1 1 1 2 2 2 2 2
6 7 7 7 7 7 7 7 7 7 7 7 7 9 10 10 9 8 8 4 4 4 3 3 2 1 1 1 1 0 1 1 1 1 1 1 1 1 2 1 2 5 5
5 7 7 6 7 7 7 6 7 7 7 6 7 7 7 8 7 6 5 4 3 2 2 1 1 0 1 1 0 0 1 1 1 1 1 1 1 1 1 1 1 2 2
5 6 9 6 6 7 5 6 6 7 6 6 6 6 8 5 4 3 3 3 2 2 2 1 0 0 0 0 0 1 1 1 1 1 1 1 1 1 1 1 1 1 2
4 5 5 5 4 5 6 6 6 6 6 5 5 6 11 4 2 2 2 1 1 1 1 0 0 -0 -0 -0 0 0 1 1 0 0 1 1 1 1 1 1 1 1 2
3 4 4 4 5 8 7 6 6 5 4 4 4 7 6 3 1 1 1 0 0 0 0 -0 -0 -0 -1 -1 -1 -1 0 0 0 0 0 1 1 1 1 1 1 2 2
3 4 4 5 5 6 6 6 5 8 5 4 4 4 3 2 1 1 0 0 0 -0 -1 -0 -0 -0 -0 -1 -1 -1 -1 -1 -1 -1 -0 0 1 1 1 1 1 1 2
4 4 5 5 6 6 6 5 6 5 5 5 5 4 3 1 1 1 0 0 -0 -0 -0 -0 -1 -1 -1 -1 -1 -1 1 8 1 3 -1 -0 0 1 1 1 1 1 2
4 5 5 5 6 6 6 5 5 4 5 4 4 3 2 1 1 0 0 0 0 -0 -0 -0 -1 -1 -1 -1 -1 2 6 7 3 8 -0 -0 0 1 1 1 1 2 2